Date,TemperatureHighF,TemperatureAvgF,TemperatureLowF,DewpointHighF,DewpointAvgF,DewpointLowF,HumidityHigh,HumidityAvg,HumidityLow,PressureMaxIn,PressureMinIn,WindSpeedMaxMPH,WindSpeedAvgMPH,GustSpeedMaxMPH,PrecipitationSumIn
2014-1-13,30,30,30,24,24,24,76,76,76,0.00,40.00,2,2,6,0.00
2014-1-14,-200,0,200,-100,-100,-100,0,0,100,0.00,40.00,5,4,12,0.00
2014-1-17,33,30,28,28,25,23,87,82,67,0.00,40.00,2,1,4,0.00
2014-1-18,30,28,25,29,27,24,99,96,87,0.00,40.00,2,1,4,0.07
2014-3-25,31,28,25,8,7,6,43,40,37,0.00,40.00,4,4,9,0.00
2014-3-26,27,24,18,10,5,-3,52,43,38,0.00,40.00,9,7,19,0.00
2014-3-27,38,32,16,12,6,0,48,34,23,0.00,40.00,6,4,15,0.00
2014-3-28,35,35,35,35,35,35,97,97,97,0.00,40.00,2,2,11,0.00
2014-3-30,38,25,36,38,-9,-100,100,66,99,0.00,40.00,10,5,19,0.00
2014-3-31,36,34,29,27,27,26,89,75,68,0.00,40.00,6,5,15,0.00
2014-7-31,55,28,55,55,28,55,97,85,73,0.00,40.00,3,2,6,0.00
2014-8-2,67,67,67,65,65,65,93,93,93,0.00,40.00,1,1,2,0.00
2014-8-4,69,69,69,65,65,65,85,85,85,0.00,40.00,1,1,4,0.00
2014-8-5,79,79,79,63,63,63,58,58,58,0.00,40.00,2,2,6,0.00
2014-8-6,76,76,76,60,56,55,57,50,48,0.00,40.00,4,4,12,0.00
2014-8-23,60,60,60,59,59,59,98,98,98,0.00,40.00,1,1,3,0.00
2014-8-24,-200,0,200,-100,0,200,0,0,100,0.00,40.00,1,1,2,0.00
2014-8-26,68,68,68,62,62,62,79,79,79,0.00,40.00,2,2,4,0.00
2014-8-27,79,79,79,69,69,69,71,71,71,0.00,40.00,4,4,11,0.00
2014-8-28,72,72,72,56,56,56,56,56,56,0.00,40.00,4,4,13,0.00
2014-10-5,44,44,44,37,37,37,78,78,78,0.00,40.00,1,1,2,0.00
2014-10-6,57,51,41,49,45,38,92,82,54,0.00,40.00,3,2,7,0.00
2014-10-7,68,57,51,56,53,51,100,88,66,0.00,40.00,4,2,12,0.00
2014-10-8,65,58,51,58,50,37,100,77,53,0.00,40.00,9,4,15,0.03
2014-10-9,60,48,42,38,36,35,77,65,43,0.00,40.00,5,2,13,0.00
2014-10-10,56,54,44,38,38,37,77,55,51,0.00,40.00,4,4,10,0.00
2014-12-10,33,18,32,32,17,31,98,62,96,0.00,40.00,4,2,16,0.06
2014-12-11,31,19,27,30,19,26,98,64,95,0.00,40.00,2,2,6,0.00
2014-12-12,27,26,25,25,24,24,95,93,91,0.00,40.00,3,2,5,0.00
2014-12-14,32,16,32,28,14,28,85,42,85,0.00,40.00,1,0,1,0.00
2014-12-15,30,30,30,26,26,26,83,83,83,0.00,40.00,1,1,13,0.00
2014-12-16,34,33,32,33,32,32,98,96,95,0.00,40.00,2,1,7,0.00
2014-12-29,32,30,26,21,19,15,83,65,50,0.00,40.00,3,2,11,0.00
2014-12-30,17,17,17,5,4,4,58,58,57,0.00,40.00,2,2,6,0.00
2014-12-31,13,13,13,3,2,1,65,62,59,0.00,40.00,3,2,8,0.00
2015-1-1,25,22,14,9,6,3,61,50,44,0.00,40.00,7,4,15,0.00
2015-1-2,31,27,23,18,13,10,59,54,48,0.00,40.00,6,4,14,0.00